Retour au catalogue

ELECTRON KICK STAGE R/B

ActifPO
NORAD 58993·ROCKET BODY·🇺🇸 United States

Lancé Feb 18, 2024 depuis Rocket Lab Launch Complex 1

Loading…

Prochains Passages (prochaines 24 heures)

TLE

VieillissantSource: Space-Track

Époque: Sep 8, 2026, 06:18 UTC

1 58993U 24034B   26251.26251508  .06446075  29530-5  14192-2 0  9997
2 58993  98.1383 328.2481 0014844 275.5793  84.3805 16.30126430142657

Suivez ELECTRON KICK STAGE R/B en temps réel avec AllMySat

Download on the App Store